GFSWCAN_925_rhum_273.txt.gz
RH
93 89 100 99 98 97 96 94 94 90 96 97 94 90 80 86 92 96 87 91 99 92 45 37 33 40 45 46 55 52 56 62 70 74 84 77 76 60 56 46 51 62 75 85 82 85 74 46 26 33 48 26 23 23
92 100 91 98 99 99 93 95 92 92 97 96 96 86 82 85 84 100 90 89 97 83 56 32 34 27 32 32 42 47 61 61 84 90 91 67 72 73 61 66 38 58 63 80 73 79 60 34 34 31 33 30 24 26
96 100 96 100 100 98 93 96 89 97 98 97 100 88 88 85 87 95 91 98 79 77 74 70 64 34 28 29 27 71 56 52 58 73 86 79 56 63 69 70 47 36 39 61 58 53 51 49 33 31 28 25 26 25
100 98 94 99 99 94 97 94 90 90 96 100 100 88 73 70 91 97 98 96 69 87 88 78 43 42 30 29 27 35 42 41 56 70 72 68 63 56 65 52 53 50 41 47 52 43 33 43 42 34 32 26 25 25
100 100 100 99 95 97 97 94 94 95 99 100 92 77 69 86 96 94 99 78 60 71 81 72 44 41 32 31 32 34 44 60 67 64 62 57 51 47 47 49 56 39 47 56 68 48 44 38 34 36 33 30 26 29
93 96 98 98 99 98 100 97 96 100 100 99 82 86 81 90 93 100 98 82 48 42 57 84 47 49 37 39 44 49 54 60 60 60 54 48 40 49 54 60 40 31 34 30 41 32 40 38 26 32 32 30 26 27
93 99 100 96 97 98 98 97 100 100 99 93 83 87 90 89 96 85 88 74 50 43 66 78 69 44 42 46 56 61 46 56 54 54 49 55 45 50 53 58 31 29 27 29 29 29 26 27 26 20 20 21 21 21
100 98 96 99 98 98 99 100 100 98 85 84 79 98 85 93 86 74 66 58 56 52 65 87 76 61 42 69 69 58 62 59 54 56 48 52 53 52 60 43 27 23 21 20 32 29 30 22 22 24 16 17 27 29
99 100 100 100 99 100 100 100 95 86 95 83 100 98 100 91 96 90 60 58 60 65 88 80 84 87 50 64 67 60 62 63 59 58 55 51 63 68 53 42 36 27 23 21 16 24 26 29 26 24 23 23 26 30
91 95 96 98 99 100 99 96 77 100 99 100 93 93 100 100 82 66 64 91 85 72 69 77 75 87 58 76 77 71 71 77 72 71 55 60 70 44 39 38 39 37 30 25 26 24 26 27 30 28 28 27 27 30
89 89 80 87 97 98 99 90 100 100 99 84 99 99 100 90 82 96 100 98 94 80 73 69 56 68 58 80 82 75 83 72 77 67 64 70 79 60 35 33 35 34 31 26 25 29 27 31 34 31 31 29 26 30
89 86 83 84 87 82 82 100 100 92 93 88 92 96 96 95 98 98 100 97 86 75 70 64 60 55 67 68 73 64 62 61 64 57 68 78 71 44 44 45 38 34 32 30 21 25 27 26 26 28 29 33 29 29
100 98 100 99 96 100 100 99 90 82 76 70 86 95 93 99 99 99 99 98 88 78 64 58 68 69 63 73 76 67 61 77 65 82 82 80 61 45 39 38 40 37 32 30 26 18 22 26 24 25 34 30 32 37
100 100 100 100 100 100 100 89 78 68 65 92 95 99 99 99 98 95 88 82 75 59 57 55 81 81 82 79 80 60 71 64 74 82 77 75 56 51 39 41 39 32 34 38 33 27 33 33 36 31 32 36 37 46
100 100 100 100 100 100 91 84 76 75 91 96 92 99 99 86 85 77 60 59 53 51 53 70 79 80 88 77 73 73 66 78 78 73 82 68 51 52 48 43 43 40 40 44 34 45 54 50 46 53 46 39 37 44
98 99 100 100 100 99 94 83 72 67 68 69 75 92 83 78 84 72 64 62 51 50 68 71 74 74 77 78 71 79 74 77 76 68 68 57 41 45 52 48 47 45 42 44 51 60 60 56 56 60 55 45 43 42
89 96 99 95 93 91 88 85 84 78 71 66 87 88 91 87 77 71 59 56 46 55 87 83 69 61 79 81 80 76 76 80 68 65 59 52 45 42 58 53 50 45 41 54 62 62 61 58 56 62 73 62 51 46
98 100 96 91 82 75 75 68 76 68 76 84 89 87 85 84 82 65 57 48 49 59 62 61 64 60 76 65 80 80 72 80 79 72 61 48 49 52 48 58 49 44 41 56 61 62 61 63 66 66 60 61 60 58
100 100 92 89 81 86 93 74 66 84 82 82 80 80 84 83 73 67 54 51 52 50 57 61 59 67 69 71 71 78 79 84 78 70 61 45 47 52 51 48 46 44 44 56 59 62 56 54 50 57 59 63 63 57
100 99 93 86 78 93 96 77 55 76 84 82 76 78 80 79 72 77 55 57 54 60 58 57 58 65 73 68 73 80 80 85 82 76 68 62 55 48 52 52 51 43 45 48 51 50 51 57 51 53 57 57 59 59
91 99 85 69 72 57 64 65 72 71 75 87 68 75 81 76 81 81 72 62 81 68 66 66 71 70 70 62 57 62 75 74 79 80 82 78 63 53 54 48 45 46 52 61 65 58 51 58 52 49 52 52 48 47
100 90 91 93 99 85 74 65 75 67 79 81 76 78 88 92 89 77 72 83 88 75 70 71 77 72 66 58 58 52 51 48 54 54 56 57 79 77 72 54 58 70 60 60 56 59 54 50 50 48 44 50 52 54
92 88 98 100 98 96 86 67 72 70 86 82 76 82 89 86 78 68 86 77 81 74 60 57 56 53 63 46 42 48 46 51 74 67 69 65 60 57 55 52 53 63 71 62 50 49 51 49 50 52 50 54 61 65
92 99 99 99 93 98 86 87 66 76 78 82 78 80 87 87 68 79 81 85 89 75 68 56 58 65 59 58 68 69 50 48 60 62 62 68 80 72 55 51 53 50 45 49 54 50 51 60 56 58 59 65 72 71
95 98 98 98 95 94 92 87 77 86 91 79 75 89 91 78 91 90 80 92 90 83 76 74 75 75 75 78 79 65 47 49 72 82 61 66 69 70 69 56 54 49 49 55 63 64 62 59 67 70 73 85 94 96
96 98 97 94 96 86 85 95 90 88 85 84 82 83 82 92 88 86 83 89 87 83 81 75 72 83 81 77 82 83 66 51 57 76 65 61 66 69 85 91 92 69 58 54 58 67 76 84 84 90 99 96 95 100
96 95 83 65 72 70 84 77 71 84 88 87 89 90 90 88 86 84 90 92 82 75 62 63 62 75 77 71 60 56 54 55 51 57 58 58 57 56 53 72 81 59 61 61 63 65 71 90 100 100 100 100 100 99
83 79 87 84 82 70 85 87 86 86 88 84 85 89 80 75 77 86 86 58 54 59 65 64 60 58 60 59 53 50 52 58 60 61 64 66 65 60 58 54 44 44 48 50 57 64 69 73 86 100 100 100 100 100
85 75 77 89 83 86 85 82 82 76 74 74 88 90 86 73 89 91 64 67 54 46 66 78 77 71 69 66 63 60 55 68 78 84 80 85 99 77 74 75 69 64 62 63 62 61 63 68 75 86 95 99 99 100
82 72 84 86 85 86 90 81 88 96 63 71 73 66 79 91 70 53 52 59 73 99 91 81 81 68 91 90 90 82 76 66 63 72 85 83 74 59 62 65 68 71 73 75 76 88 95 100 99 99 100 100 100 99
70 82 86 85 83 88 99 98 100 100 98 95 97 95 95 98 84 65 57 63 82 98 97 97 99 96 96 98 97 100 100 79 74 76 77 74 68 65 63 59 58 63 73 77 91 98 100 100 100 98 99 99 99 100
91 86 87 84 91 97 98 98 98 98 96 96 97 96 95 97 91 92 71 75 100 100 98 98 98 92 59 61 76 69 55 56 57 65 80 83 80 72 62 48 66 92 94 94 97 100 100 100 99 99 99 100 100 100
89 92 89 89 93 95 88 92 96 93 88 93 93 94 96 92 79 83 73 66 47 42 47 41 29 27 40 46 48 56 64 55 50 51 57 65 68 66 64 62 63 71 92 96 100 100 99 99 100 99 100 100 99 100

GFSWCAN_925_rhum_279.txt.gz
RH
99 99 99 97 92 91 94 93 94 95 92 99 100 99 98 92 97 86 72 71 73 93 73 72 70 64 58 60 61 58 52 60 70 68 75 80 75 72 66 53 58 70 78 84 88 80 61 49 30 34 45 35 28 37
97 84 80 83 91 94 95 95 95 98 99 90 100 100 99 93 94 91 80 73 80 88 88 79 79 76 42 39 50 61 57 57 76 83 90 79 75 80 64 72 49 60 63 75 67 71 53 45 33 32 38 29 28 35
83 79 80 87 82 90 95 93 97 100 100 90 100 100 96 94 97 92 77 96 88 88 76 72 76 57 50 36 27 51 61 63 67 70 85 80 48 70 70 66 53 44 54 56 55 42 52 56 50 34 41 27 29 40
87 89 90 89 91 94 99 100 100 100 100 100 99 100 97 98 96 91 82 96 67 88 96 89 67 71 48 29 25 25 49 64 71 71 73 72 58 59 60 47 56 55 54 64 62 55 54 52 51 36 36 30 31 43
90 95 89 99 100 100 100 99 100 99 99 100 99 100 96 99 97 96 85 89 70 81 94 82 65 50 32 27 28 28 46 65 66 60 66 61 72 65 70 64 63 56 59 58 58 48 38 45 47 44 39 36 37 42
88 93 96 98 100 100 100 100 99 99 98 99 100 100 100 99 100 97 98 96 96 83 97 99 84 62 46 35 46 49 50 66 66 62 62 65 56 55 62 67 49 47 47 35 36 41 48 36 47 46 36 37 37 40
92 87 94 95 100 100 100 100 98 99 98 100 100 99 95 99 100 94 87 79 70 96 98 100 99 85 51 57 72 64 61 67 60 67 58 61 56 56 62 63 39 43 38 39 31 46 40 39 34 51 42 32 29 30
96 96 96 100 100 100 100 100 98 100 99 99 100 91 95 100 99 96 67 98 68 92 94 100 100 88 75 86 77 73 68 66 69 66 67 59 62 62 58 48 42 34 41 42 40 38 34 35 35 40 41 39 41 42
91 97 99 100 100 100 100 100 100 98 99 100 97 98 100 98 96 91 63 90 98 84 98 99 98 99 80 83 76 68 67 64 72 62 58 58 67 62 49 41 42 41 36 35 45 40 34 36 36 35 44 44 41 44
100 98 100 100 100 100 100 100 98 99 100 99 100 95 100 97 82 73 90 100 98 99 94 92 85 98 73 83 81 72 80 77 66 64 71 67 71 57 46 47 42 44 42 30 35 46 48 40 41 36 34 42 39 41
90 100 99 100 100 100 100 100 100 100 99 94 99 99 99 82 82 98 100 100 99 100 84 84 66 74 69 67 84 77 85 80 77 70 66 73 82 69 47 38 38 48 46 40 30 29 45 43 42 43 37 34 34 42
100 98 100 100 100 99 100 100 99 93 88 88 88 96 84 97 100 99 99 100 100 97 86 65 59 55 78 71 75 81 72 75 72 81 79 81 74 55 54 50 53 54 49 45 35 34 32 40 37 37 34 35 33 34
99 99 99 100 100 99 100 99 82 78 63 62 94 100 98 100 99 99 98 99 99 91 62 56 65 77 65 74 84 71 66 78 73 80 78 75 61 50 54 48 51 57 52 47 43 33 32 31 34 34 35 29 30 41
98 100 100 99 100 100 99 76 64 56 65 96 99 99 99 99 99 96 93 94 87 62 55 54 78 80 82 72 82 61 71 75 78 81 69 72 64 55 55 51 53 56 58 52 47 36 39 43 42 34 29 27 35 50
99 100 100 100 100 97 80 66 67 68 98 97 97 98 99 90 92 89 84 70 57 49 53 69 80 79 87 78 74 81 75 77 77 69 79 68 55 58 54 52 51 56 64 61 45 43 47 46 44 39 33 34 35 42
98 100 98 100 99 77 78 72 95 88 97 96 97 96 94 91 94 88 70 66 50 49 63 66 74 66 68 78 77 73 67 70 66 74 72 66 66 66 60 57 55 54 57 59 49 39 44 48 44 39 43 44 43 40
93 91 96 91 95 86 99 94 90 97 96 87 93 91 89 84 84 75 61 56 45 44 71 77 56 49 84 87 82 79 74 73 70 72 72 69 66 66 64 64 65 57 59 58 52 46 43 45 46 52 66 54 50 45
89 88 90 89 98 99 97 95 98 98 86 90 90 92 92 88 79 70 58 48 43 71 63 56 76 76 78 67 80 78 82 77 78 73 77 64 61 67 63 66 60 54 61 62 55 56 57 59 62 60 51 51 53 53
99 100 100 98 93 91 98 98 96 93 89 88 89 91 90 86 75 56 51 64 66 66 63 67 61 65 65 72 68 78 80 85 83 79 71 62 63 69 62 59 56 64 67 69 68 70 64 52 47 49 49 51 54 56
98 100 99 87 82 97 100 96 79 83 86 86 84 89 91 90 68 66 72 68 63 62 55 54 58 68 72 69 77 69 83 80 73 77 78 79 70 64 66 65 63 65 71 69 68 67 69 67 58 51 48 48 53 57
98 96 82 94 93 99 98 94 87 81 79 87 82 84 89 82 80 78 76 76 76 70 60 74 77 84 83 83 78 78 79 64 73 73 77 85 79 67 67 62 59 67 74 80 81 76 68 59 52 54 52 49 43 40
97 93 91 89 96 87 87 81 88 83 85 84 85 86 87 90 91 84 80 81 88 72 78 79 78 78 78 81 82 72 69 61 65 71 67 72 86 85 83 71 72 83 75 72 66 70 61 52 52 52 51 48 50 48
81 82 97 99 99 93 92 80 82 81 92 91 84 84 87 86 82 76 87 82 84 82 77 73 67 67 79 74 70 68 60 64 82 77 75 71 66 62 65 66 60 71 83 71 58 51 49 49 50 51 53 55 55 56
88 98 99 99 96 98 96 93 83 87 81 86 92 92 85 83 74 80 76 84 88 80 75 68 73 75 74 69 78 78 72 62 73 74 64 70 86 76 62 59 59 54 47 47 54 54 55 52 52 57 60 61 63 60
97 98 98 98 96 93 96 95 86 81 89 88 95 99 91 77 89 83 77 87 92 82 78 80 75 72 74 73 75 71 65 59 78 82 74 61 66 79 77 68 61 56 53 53 64 61 60 62 65 67 65 68 74 79
95 96 93 96 97 88 88 92 88 88 84 89 95 91 88 93 84 73 82 86 91 80 85 83 80 78 72 72 74 78 66 56 56 71 66 64 57 65 86 88 90 66 55 53 51 60 67 73 75 79 82 79 87 91
94 94 88 83 83 81 90 88 80 81 84 92 95 93 86 88 86 82 88 91 81 79 62 63 65 71 73 75 60 49 47 51 49 46 42 46 52 52 48 65 74 46 48 49 54 53 55 66 78 82 85 89 84 86
91 81 86 87 87 81 89 89 90 86 93 91 84 81 69 69 68 82 86 75 73 67 58 53 54 54 51 50 47 49 60 62 61 58 57 59 57 54 55 57 54 53 51 50 49 51 54 55 57 65 82 89 88 82
98 96 81 91 86 87 94 86 87 92 88 77 84 89 80 80 92 95 82 79 80 74 86 88 78 64 59 56 59 63 55 59 74 87 84 88 97 64 59 56 56 61 64 59 54 56 58 60 63 64 72 84 93 100
98 92 94 96 95 97 99 98 99 97 92 89 85 78 86 96 90 83 70 65 76 96 97 93 96 81 98 91 96 84 69 66 63 66 88 88 74 51 56 57 57 58 66 69 64 62 74 90 98 100 100 99 100 100
93 91 91 94 99 99 98 98 97 96 97 96 97 94 97 98 79 85 69 80 78 84 88 99 100 98 95 99 98 99 90 60 64 65 67 67 66 65 63 61 60 58 61 71 79 81 87 99 99 100 100 99 99 100
95 99 97 95 99 97 94 98 98 98 96 92 98 96 87 82 76 87 98 74 55 50 53 46 37 28 26 34 43 45 39 42 42 36 36 47 60 66 78 81 76 68 64 69 95 100 100 100 100 99 100 100 99 98
89 88 88 89 86 91 91 95 98 95 93 96 94 97 92 82 63 81 58 65 66 53 41 38 38 38 36 33 30 28 31 36 39 41 45 45 44 43 49 78 98 89 85 90 98 100 100 100 100 98 98 100 100 99

GFSWCAN_925_rhum_285.txt.gz
RH
79 84 90 94 98 99 98 98 97 98 97 96 95 91 82 84 80 94 89 78 71 89 69 62 60 93 93 83 87 76 60 61 66 64 68 69 68 67 54 51 54 58 66 69 67 63 58 38 40 34 41 36 36 45
83 90 96 99 99 97 98 99 99 99 100 99 94 91 85 86 85 89 89 84 69 76 78 71 63 64 77 76 85 66 70 62 77 78 78 67 70 72 57 61 51 55 56 68 58 65 48 42 38 34 37 34 35 42
89 95 98 100 96 99 97 98 96 93 93 93 93 88 85 85 82 93 93 85 76 82 75 69 63 52 56 72 66 84 61 56 65 66 77 73 51 65 64 56 53 52 50 55 48 42 44 47 41 39 31 29 28 31
95 97 97 99 98 94 96 98 97 97 93 88 91 89 83 87 85 93 96 81 74 87 89 77 48 62 32 40 63 63 61 62 67 66 63 63 50 58 54 48 49 50 48 51 50 44 44 40 42 36 36 34 31 38
96 94 96 96 95 99 98 96 94 86 90 93 85 87 86 85 86 97 97 81 72 68 87 86 73 56 47 62 43 48 60 66 63 64 64 56 65 59 63 52 49 49 50 51 50 42 38 31 35 39 37 36 31 37
95 94 90 94 100 100 98 96 93 87 91 95 92 92 91 88 91 100 99 95 76 65 86 92 77 75 74 61 71 66 61 64 65 58 60 65 64 55 54 52 42 43 44 39 31 36 38 34 36 42 34 34 33 37
94 89 90 97 95 96 93 96 95 98 90 94 90 93 90 97 100 94 97 94 78 72 92 88 88 78 80 72 78 70 63 64 61 63 60 60 61 57 59 54 43 41 34 34 35 37 36 35 27 44 36 32 34 33
96 92 90 97 91 90 98 97 96 100 88 87 88 91 90 100 100 97 84 92 76 89 84 89 91 94 75 89 90 80 73 64 65 62 66 60 64 62 64 49 40 32 37 39 37 32 27 29 34 43 39 37 37 35
92 89 94 96 89 82 97 97 98 89 88 87 88 89 99 98 98 99 73 88 70 76 96 94 96 96 83 84 89 80 76 74 69 61 62 60 60 63 54 45 40 38 38 34 40 38 34 33 32 41 41 38 35 36
99 96 99 98 88 91 88 82 79 87 85 89 99 100 100 99 94 99 97 98 96 91 92 89 82 95 94 87 92 93 82 84 79 63 68 64 56 48 39 42 39 42 41 40 46 49 49 43 38 44 47 41 36 37
93 90 92 96 98 99 100 97 93 93 95 97 98 100 100 98 90 98 99 99 100 99 89 90 86 93 85 86 86 81 83 74 75 65 61 67 69 47 38 43 43 43 42 40 34 37 42 39 39 45 50 50 43 41
97 95 89 88 90 100 99 100 100 99 94 93 94 97 99 95 100 98 96 97 91 86 88 88 74 74 93 87 77 82 78 79 72 69 74 75 65 49 45 41 38 38 38 40 36 34 39 44 40 40 42 45 49 43
94 91 91 92 97 100 100 100 99 98 93 80 81 100 100 100 98 94 97 92 96 94 90 71 81 84 97 96 93 80 77 81 69 78 78 71 61 48 43 43 42 39 41 40 42 38 36 41 42 43 41 36 37 42
95 95 96 95 100 99 100 100 100 92 70 84 98 98 96 98 88 84 55 51 76 88 79 61 92 94 95 99 94 76 73 76 84 89 73 71 59 50 49 53 50 56 58 53 50 44 42 46 50 42 38 35 34 45
100 96 89 100 99 100 100 100 91 72 68 94 86 89 97 82 86 82 52 67 85 72 66 79 88 84 93 98 83 78 86 81 76 73 78 64 48 53 59 64 57 54 66 65 60 56 58 46 46 46 39 38 36 37
100 100 99 100 100 100 99 90 71 51 92 95 92 93 92 88 98 91 55 48 74 68 63 75 84 89 80 87 92 79 69 76 69 70 67 56 52 60 60 61 60 62 64 61 59 55 51 51 48 42 41 42 41 37
95 96 100 99 99 97 80 68 52 96 94 99 100 94 89 69 85 92 66 48 61 72 93 93 99 92 83 80 80 70 76 71 68 65 64 60 54 60 58 63 67 68 66 61 59 52 48 44 44 52 59 54 46 43
97 100 99 99 96 84 72 71 93 98 99 99 94 98 93 88 83 83 70 53 62 70 72 78 80 81 85 70 72 71 71 76 72 70 65 65 62 62 61 61 64 61 62 62 54 54 55 58 53 55 52 57 58 56
98 97 90 79 62 63 91 95 91 99 99 99 99 98 94 90 80 65 62 59 57 57 65 67 61 64 66 70 64 59 70 72 66 71 72 69 67 66 67 62 62 63 65 64 59 57 55 46 44 46 52 59 63 68
98 84 68 58 49 91 99 97 93 98 98 97 98 98 92 83 71 68 66 67 62 60 72 73 63 62 62 62 65 58 63 70 70 74 76 78 73 66 67 66 65 69 72 70 64 59 64 62 47 44 46 47 55 65
91 80 68 56 90 94 98 99 99 99 100 100 98 94 94 82 84 81 87 90 92 92 83 71 71 72 75 77 78 73 74 61 60 59 60 74 82 68 71 73 74 74 74 74 71 73 61 59 50 43 42 43 43 44
92 74 72 81 98 99 99 99 100 98 99 100 98 98 98 97 98 95 95 95 90 79 75 78 84 84 87 83 80 74 71 71 75 74 76 75 81 78 79 79 74 79 76 73 68 71 63 51 48 47 46 48 48 46
72 60 92 95 99 99 99 100 99 100 100 100 100 100 100 100 97 89 99 94 90 82 82 85 84 86 85 80 75 71 65 64 71 75 75 76 75 70 74 73 64 76 80 76 58 56 56 52 52 52 54 54 52 53
64 94 95 97 98 98 100 99 100 100 100 99 99 99 100 99 88 96 99 96 90 85 84 87 84 84 78 76 82 80 79 71 76 78 74 72 78 82 68 68 64 60 56 60 61 60 58 59 58 57 55 56 56 54
76 91 92 95 96 97 97 98 94 96 98 98 98 98 99 92 97 97 98 94 87 86 84 84 85 80 78 89 88 85 70 66 72 78 76 63 83 84 82 73 66 63 60 60 70 64 66 64 61 57 57 56 57 57
93 97 95 96 95 96 93 96 96 97 97 98 98 95 89 85 84 81 79 85 86 84 93 88 82 78 79 80 79 77 74 56 56 75 77 60 61 70 81 82 81 71 59 53 52 62 66 63 59 59 60 60 59 58
94 96 97 98 97 89 90 84 90 96 96 94 94 89 84 90 80 82 87 91 87 87 74 64 58 71 75 80 76 68 59 49 46 54 51 56 54 49 45 64 70 49 48 49 51 48 50 58 60 59 61 64 61 59
97 96 96 88 92 83 87 85 86 89 91 88 80 81 86 84 85 92 93 95 94 84 75 66 56 56 62 67 69 64 63 55 58 63 66 68 64 59 54 51 48 47 47 48 49 50 49 48 50 54 57 58 59 63
96 97 92 96 96 96 99 98 96 95 93 77 86 86 98 99 98 98 98 100 88 82 82 84 93 79 80 77 70 67 64 58 63 73 77 88 91 75 69 66 60 58 56 53 54 57 57 56 55 55 58 63 66 72
96 96 96 96 96 96 98 98 97 97 91 89 87 88 94 96 98 100 98 98 97 98 100 100 97 86 98 97 100 95 88 79 59 65 88 88 83 80 71 66 64 63 62 61 58 60 60 65 69 75 82 90 99 100
92 96 96 96 96 96 96 96 94 85 86 82 79 83 88 97 96 99 100 100 100 100 96 92 93 100 99 97 92 95 93 97 94 75 71 72 71 69 66 64 61 61 65 72 75 76 83 95 100 99 98 98 98 100
94 96 96 96 96 96 95 96 96 94 95 94 96 92 88 93 100 94 99 100 97 96 99 100 100 100 98 96 88 83 83 79 70 62 53 49 45 43 40 47 60 69 69 69 79 96 99 99 99 99 99 99 99 99
95 95 95 95 96 96 96 96 95 94 93 96 99 98 99 94 95 95 91 93 100 100 100 100 100 100 100 94 90 87 82 83 85 86 86 72 54 40 35 39 39 51 53 66 99 98 97 98 99 99 100 98 96 95

GFSWCAN_925_rhum_288.txt.gz
RH
75 74 79 74 78 81 82 84 86 87 96 92 93 93 89 81 77 92 85 87 83 98 55 47 45 60 87 99 96 90 79 57 50 56 52 53 48 46 43 38 39 41 49 52 42 53 70 23 32 28 32 26 26 28
79 79 75 75 79 85 85 88 97 99 98 98 97 95 92 90 88 85 87 93 86 83 56 71 62 66 68 90 99 91 73 52 75 64 61 47 53 52 43 58 39 46 39 50 40 52 36 28 26 25 26 27 26 29
78 75 74 80 85 86 88 99 98 98 98 98 99 100 93 90 87 89 90 96 88 92 72 57 55 50 69 71 85 100 78 64 51 58 56 49 48 43 49 46 38 35 34 39 38 26 32 31 26 28 24 24 21 22
78 76 82 88 88 89 98 99 98 97 100 98 98 99 93 91 88 87 93 94 87 82 79 53 47 58 53 67 66 81 81 80 68 50 44 43 40 48 42 38 33 34 36 32 33 28 28 28 27 22 22 22 22 22
77 81 87 90 90 93 99 98 98 99 99 95 92 95 92 88 88 90 94 96 80 61 73 58 48 47 54 65 68 66 80 79 66 53 44 40 41 41 40 36 33 33 33 37 38 26 25 20 21 22 24 24 21 24
81 87 92 91 91 98 99 98 98 98 93 94 90 91 87 88 90 99 100 99 79 72 79 66 50 48 56 65 85 90 72 75 64 48 43 40 50 43 38 34 25 28 27 24 24 26 26 26 27 23 24 21 20 23
90 92 92 91 89 92 98 99 97 94 89 91 89 88 85 84 96 97 96 93 85 78 96 69 51 45 66 66 68 90 88 84 64 54 51 40 46 44 40 38 27 26 24 23 25 26 25 22 18 23 25 20 20 21
93 94 92 93 90 90 93 100 90 91 91 92 91 87 86 90 100 96 93 92 81 84 78 74 72 72 68 78 81 64 81 83 58 52 51 48 48 45 49 34 28 24 24 25 25 27 22 20 18 22 25 23 22 21
95 95 96 96 88 89 97 96 82 87 87 94 94 93 99 99 99 95 87 85 77 66 75 69 65 79 67 67 66 66 62 83 78 65 49 47 49 57 41 39 32 27 28 28 25 27 26 26 22 21 25 24 23 22
97 100 99 97 85 84 94 88 82 79 84 92 100 100 100 99 92 98 98 96 93 87 68 68 47 89 86 77 82 76 74 90 97 81 49 57 55 39 38 38 31 30 29 27 33 37 36 31 29 24 27 26 22 22
97 98 99 100 90 87 92 83 89 83 94 99 99 100 99 95 81 95 100 100 99 99 76 56 46 68 88 95 97 80 92 85 94 64 62 54 55 49 40 40 35 30 30 29 26 24 26 27 29 29 29 29 27 24
94 97 100 100 91 95 90 80 90 96 97 96 95 98 98 98 100 100 99 88 91 70 58 54 44 47 84 96 79 84 95 86 77 53 64 65 45 35 40 40 36 35 32 30 27 26 26 27 27 29 30 32 33 30
98 99 100 98 97 97 88 80 89 97 93 94 91 100 100 100 100 96 92 89 79 61 54 47 48 47 82 94 96 74 85 92 53 71 76 54 40 36 38 35 35 34 35 33 30 28 28 29 30 32 31 30 37 40
97 98 99 100 97 100 91 91 98 99 88 99 100 100 95 97 80 60 44 42 41 44 49 41 55 62 75 100 99 88 63 64 76 77 56 51 44 43 44 38 34 38 38 37 36 31 33 36 39 43 38 38 44 53
96 92 100 100 97 100 100 96 100 96 75 97 88 76 88 56 50 44 32 39 43 42 44 51 56 63 80 100 99 76 78 83 61 44 52 50 42 41 39 41 40 39 47 43 38 38 48 48 48 59 51 50 42 52
95 97 100 100 100 100 100 100 100 96 78 64 58 46 47 59 74 62 45 46 45 43 45 46 61 75 82 81 93 90 65 70 52 51 52 48 44 37 33 45 50 47 40 42 42 42 46 54 49 40 48 47 49 46
97 97 95 95 100 100 99 98 95 99 94 87 86 48 53 46 69 55 39 41 45 53 68 56 78 77 52 74 87 59 57 49 46 50 54 50 46 37 40 46 56 51 45 43 43 43 43 47 39 41 46 51 54 56
99 92 86 96 100 100 97 97 100 100 98 75 70 68 54 48 66 54 40 40 46 53 49 51 49 69 78 59 50 47 53 52 53 55 50 49 43 40 44 47 50 46 45 46 45 45 47 44 40 38 35 46 49 53
100 100 100 100 96 92 100 97 82 84 77 63 70 73 63 67 54 47 39 42 40 38 37 45 54 52 48 38 41 42 46 47 50 46 52 50 46 47 50 48 48 47 47 47 46 42 40 37 38 41 44 45 47 51
100 100 99 98 75 81 99 95 82 83 76 78 63 72 71 64 59 57 53 50 47 52 55 53 55 47 46 42 38 40 46 45 50 56 57 54 50 49 50 51 44 48 49 46 44 44 45 46 44 46 47 46 52 53
96 93 78 64 88 86 90 87 94 94 95 93 76 66 67 66 68 75 69 56 63 67 63 50 52 50 52 50 55 60 57 52 49 46 45 55 52 49 49 50 53 53 55 54 54 52 50 49 52 55 65 64 66 63
93 80 75 78 96 94 96 96 95 95 93 99 98 76 75 89 96 86 80 86 84 77 65 56 54 52 60 65 62 60 56 54 61 62 55 60 60 59 57 57 57 63 61 62 56 61 60 61 64 66 73 62 68 69
58 63 90 96 100 100 100 98 96 98 99 100 100 100 100 98 97 90 99 94 92 90 70 58 64 72 75 70 69 63 62 55 52 52 55 53 57 62 65 63 64 73 73 69 67 67 70 66 66 61 60 68 66 64
59 96 100 100 96 100 100 100 100 100 99 98 100 100 100 99 98 99 99 98 92 89 84 90 86 80 74 72 69 64 66 57 56 56 58 64 69 68 67 70 73 73 68 75 72 74 76 70 66 72 60 60 59 60
92 98 100 96 92 96 99 99 98 96 99 100 100 100 100 99 100 100 100 98 92 95 93 92 96 88 76 77 76 73 77 66 66 74 66 58 71 76 76 75 76 79 73 77 90 84 83 68 64 59 60 58 64 63
91 98 93 93 94 91 92 96 97 98 98 99 100 100 100 100 100 99 99 98 96 94 97 94 92 90 85 77 69 72 72 69 62 70 73 67 63 67 75 76 73 76 76 62 58 81 77 67 63 63 65 59 56 56
91 96 88 87 84 90 92 84 93 98 99 98 96 99 100 99 96 97 100 99 95 92 92 89 77 83 82 79 79 80 67 62 67 69 78 74 66 66 62 68 66 65 57 55 48 44 51 60 61 60 59 57 53 51
88 85 91 94 93 93 95 90 96 97 97 98 98 96 96 95 96 97 100 98 100 95 89 88 79 76 84 86 86 80 80 69 60 60 65 70 65 57 52 48 48 46 48 48 47 45 43 43 46 50 52 52 53 56
90 88 86 95 96 95 95 95 94 95 97 96 95 96 96 92 95 96 98 100 99 93 89 88 95 88 89 95 91 86 80 76 74 96 100 100 99 87 64 55 52 51 50 51 54 54 51 50 49 50 52 55 57 59
92 89 90 93 93 94 94 94 96 96 95 96 92 92 89 93 95 97 97 97 96 98 100 100 100 100 100 100 100 100 97 80 71 86 97 100 96 80 70 61 57 56 55 56 58 62 64 64 64 65 67 70 74 79
90 92 94 93 92 93 94 97 94 92 90 89 82 88 91 90 86 96 96 97 99 99 97 98 98 100 100 100 100 100 100 100 98 84 77 85 91 89 82 75 68 65 64 60 59 62 65 73 81 86 95 98 99 100
91 93 94 90 93 96 96 98 97 95 93 86 90 82 78 80 91 89 96 96 94 93 99 99 98 100 100 100 100 100 98 97 91 87 81 82 81 80 81 81 75 72 75 80 89 92 98 98 99 97 98 98 99 99
92 92 92 93 95 95 94 93 88 94 93 91 92 88 88 85 91 91 84 93 97 98 100 100 100 100 100 100 100 100 99 98 98 90 74 60 49 47 47 48 55 62 73 98 99 97 98 98 99 99 99 100 98 97